Location: Meanaryar
(48.4161°N, 4.7315°W)
Time: 19:38:12
(UTC+00:00)

NOSS 3-2 (C) - Visible Passes

Search period start: 26 January 2021 00:00
Search period end: 05 February 2021 00:00
Orbit: 789 x 1424 km, 63.4° (Epoch: 09 January)

Date Brightness Start Highest point End Pass type
(mag) Time Alt. Az. Time Alt. Az. Time Alt. Az.
26 Jan 4.3 05:57:02 10° SSW 06:02:25 49° ESE 06:08:35 10° NE visible
27 Jan 5.1 05:13:09 10° S 05:18:01 31° ESE 05:23:25 10° NE visible
27 Jan 3.5 07:02:42 10° WSW 07:08:26 61° NW 07:15:05 10° NE visible
28 Jan 5.7 04:29:54 10° SSE 04:33:45 19° ESE 04:37:53 10° ENE visible
28 Jan 3.4 06:17:52 10° SW 06:23:34 87° NW 06:30:14 10° NE visible
29 Jan 6.1 03:48:25 10° ESE 03:49:37 11° ESE 03:50:49 10° E visible
29 Jan 3.7 05:33:59 14° SSW 05:38:55 64° SE 05:45:21 10° NE visible
30 Jan 4.4 04:51:37 25° S 04:54:24 41° ESE 05:00:19 10° NE visible
30 Jan 3.7 06:39:29 10° WSW 06:45:10 50° NW 06:51:45 10° NE visible
31 Jan 5.0 04:09:01 24° SE 04:10:03 25° ESE 04:15:03 10° ENE visible
31 Jan 3.4 05:56:30 23° SW 06:00:14 70° NW 06:06:55 10° NE visible
01 Feb 5.7 03:26:14 15° E 03:26:14 15° E 03:29:13 10° ENE visible
01 Feb 3.4 05:13:43 48° SSW 05:15:27 82° SE 05:22:03 10° NE visible
01 Feb 4.3 07:01:41 10° W 07:07:07 33° NNW 07:13:21 10° NE visible
02 Feb 3.9 04:30:49 54° ESE 04:30:51 54° ESE 04:37:07 10° NE visible
02 Feb 4.0 06:18:16 21° W 06:21:58 42° NNW 06:28:26 10° NE visible
03 Feb 4.9 03:47:48 30° E 03:47:48 30° E 03:52:01 10° NE visible
03 Feb 3.5 05:35:16 43° W 05:36:56 57° NW 05:43:35 10° NE visible
04 Feb 5.8 03:04:43 16° ENE 03:04:43 16° ENE 03:06:36 10° ENE visible
04 Feb 3.3 04:52:10 80° NNW 04:52:10 80° NNW 04:58:44 10° NE visible
04 Feb 4.6 06:39:37 14° WNW 06:44:03 30° NNW 06:50:07 10° NE visible
